CST,Max TemperatureF,Mean TemperatureF,Min TemperatureF,Max Dew PointF,MeanDew PointF,Min DewpointF,Max Humidity, Mean Humidity, Min Humidity, Max Sea Level PressureIn, Mean Sea Level PressureIn, Min Sea Level PressureIn, Max VisibilityMiles, Mean VisibilityMiles, Min VisibilityMiles, Max Wind SpeedMPH, Mean Wind SpeedMPH, Max Gust SpeedMPH,PrecipitationIn, CloudCover, Events, WindDirDegrees
2013-1-1,24,14,4,19,10,0,88,72,55,30.36,30.29,30.19,10,10,6,12,4,15,0.00,4,,337
2013-1-2,33,19,4,22,15,1,88,75,61,30.30,30.24,30.17,10,7,4,15,4,18,0.00,3,,237
2013-1-3,39,27,14,25,21,12,96,78,59,30.46,30.40,30.31,10,7,2,12,6,15,0.00,5,,318
2013-1-4,43,27,11,27,19,8,92,73,53,30.44,30.35,30.25,10,8,4,17,5,23,0.00,0,,158
2013-1-5,47,37,27,31,27,21,78,66,53,30.25,30.18,30.07,10,10,10,22,9,26,0.00,4,,235
2013-1-6,41,30,19,22,19,15,84,61,38,30.43,30.34,30.22,10,9,6,15,6,17,0.00,1,,271
2013-1-7,51,36,21,27,23,18,75,56,36,30.29,30.16,30.05,10,10,10,21,10,28,0.00,0,,175
2013-1-8,56,42,28,31,29,25,85,62,38,30.22,30.05,29.98,10,10,10,22,9,26,0.00,0,,180
2013-1-9,52,36,20,33,27,17,92,71,50,30.43,30.37,30.26,10,8,4,10,3,15,0.00,0,,68
2013-1-10,48,42,36,46,40,28,100,81,62,30.33,29.93,29.73,10,3,0,16,7,20,0.53,8,Fog-Rain,104
2013-1-11,59,54,48,48,45,22,100,81,61,29.75,29.65,29.56,10,9,3,28,14,35,0.00,4,,192
2013-1-12,52,36,20,33,17,10,76,53,30,30.13,30.03,29.74,10,10,7,28,13,36,0.00,6,,328
2013-1-13,28,19,10,9,6,5,76,56,35,30.41,30.28,30.14,10,10,10,21,9,25,0.00,1,,324
2013-1-14,34,20,5,14,8,1,84,58,32,30.57,30.47,30.43,10,10,9,10,3,16,0.00,0,,20
2013-1-15,34,22,9,15,10,8,92,64,36,30.43,30.33,30.22,10,10,6,8,1,10,0.00,1,,158
2013-1-16,49,30,10,28,18,7,92,67,42,30.23,30.12,30.05,10,10,9,15,5,18,0.00,1,,269
2013-1-17,50,36,22,30,26,22,96,71,46,30.52,30.42,30.26,10,10,6,10,5,14,0.00,0,,322
2013-1-18,60,44,28,30,28,24,85,57,29,30.42,30.21,30.03,10,10,10,31,13,41,0.00,0,,183
2013-1-19,63,48,33,30,28,24,70,48,25,30.27,30.08,29.99,10,10,10,21,10,28,0.00,0,,270
2013-1-20,40,28,16,27,12,8,69,52,35,30.46,30.36,30.30,10,10,10,16,7,21,0.00,0,,10
2013-1-21,24,18,11,11,6,0,83,61,39,30.49,30.45,30.41,10,10,10,18,6,25,0.00,6,,345
2013-1-22,32,22,12,10,7,3,67,52,36,30.45,30.37,30.30,10,10,9,13,6,20,0.00,0,,81
2013-1-23,51,31,10,22,15,6,84,58,32,30.46,30.30,30.19,10,10,8,14,5,17,0.00,0,,345
2013-1-24,27,19,11,14,5,1,68,53,37,30.54,30.39,30.22,10,10,10,16,10,22,0.00,3,,80
2013-1-25,48,31,13,20,15,8,74,53,31,30.28,30.23,30.16,10,9,4,13,4,16,0.00,1,,301
2013-1-26,58,40,22,27,23,18,88,56,24,30.30,30.21,30.08,10,10,8,18,7,22,T,1,,133
2013-1-27,61,50,39,53,45,34,89,69,49,30.07,29.86,29.73,10,8,4,23,11,33,0.05,6,Rain,168
2013-1-28,76,63,49,61,53,45,89,66,43,29.85,29.75,29.62,10,8,4,30,12,38,0.00,4,,182
2013-1-29,69,53,36,61,42,33,92,83,73,29.69,29.59,29.45,10,6,2,25,12,33,0.36,7,Rain-Thunderstorm,334
2013-1-30,36,29,21,32,23,15,96,80,63,30.01,29.77,29.53,10,6,1,31,18,46,0.02,8,Snow,319
2013-1-31,25,15,4,19,8,0,88,69,49,30.53,30.25,29.99,10,10,8,33,10,41,0.00,3,,332